Location: *
(41.3833°S, 177.8333°W)
Time: 09:01:48
(UTC+00:00)

CZ-3 R/B - Pass Details

Date: 01 April 2020
Orbit: 359 x 10253 km, 28.4° (Epoch: 03 June)

Event Time Altitude Azimuth Distance (km) Brightness Sun altitude
Exits shadow 16:51:30 16° 285° (WNW) 7,662 5.4 -15.1°
Maximum altitude 17:08:59 43° 343° (NNW) 2,677 3.6 -11.9°
Drops below altitude 10° 17:15:54 10° 53° (NE) 2,921 4.8 -10.6°
Sets 17:17:44 0° 61° (ENE) 3,459 5.5 -10.2°
